Weather in Cleveland

United States     41°29′57″N   81°41′37″W
В апреле 2022 года жителям России запретили посещать сайт meteo.paraplan.net по решению Генеральной прокуратуры. Аудитория сайта уменьшилась в 10 раз. Владельцы сайта не видят смысла в поддержке погодного сервера в таких условиях. Сайт будет закрыт в октябре.
temp.,
°C
wind,
m/s
gust,
m/s
humid.,
%
clouds,
%
prec.,
mm/h
press.,
hPa
HPBL,
m
4 october, tue
tue423:00+12ene3563100 0.0 1025289
02:00+12ene2361100 0.0 1025203
05:00+11e1262100 0.0 1023151
08:00+12nne1261100 0.0 1024187
11:00+15nne3453100 0.0 1023791
14:00+16n445333 0.0 1022708
17:00+15nne344611 0.0 1020464
20:00+15nne11441 0.0 1020131
5 october, wed
wed523:00+14ne11450 0.0 1020120
02:00+13se11450 0.0 102068
05:00+12ssw22540 0.0 102093
08:00+12sw22630 0.0 1020110
11:00+15wsw22585 0.0 1020273
14:00+18nw22565 0.0 1019418
17:00+17nw11575 0.0 1018227
20:00+16sse11595 0.0 101837
6 october, thu
thu623:00+16s335939 0.0 101765
02:00+15ssw3564100 0.0 1017124
05:00+14ssw466492 0.0 1016146
08:00+13ssw4762100 0.0 1016160
11:00+17sw4754100 0.0 1016373
14:00+20wsw344822 0.0 1015524
17:00+21wnw134690 0.0 1013684
20:00+19wsw4852100 0.0 1014268
7 october, fri
fri723:00+17sw6125812 0.0 1013388
02:00+14n8981100 0.0 1015796
05:00+12nnw8981100 0.4 10171052
08:00+11nnw8974100 1.6 10201192
11:00+10nnw8968100 0.1 10221502
14:00+10nnw7866100 0.4 10231576
17:00+10nw7759100 0.2 10231622
20:00+10nw675169 0.2 10241732
8 october, sat
sat823:00+10nnw455094 0.0 10241070
02:00+9nw345492 0.0 1025913
05:00+8wnw57585 0.0 1025993
08:00+8wnw56605 0.0 1026947
11:00+9wnw56505 0.0 10261212
14:00+11w67505 0.0 10251202
17:00+13w69415 0.0 10221589
20:00+12sw610485 0.0 1021874